Year,Month,Day,Hour,Minute,Value (Times are PST for windgust in km/hr)
2020,03,13,00,01,3.20
2020,03,13,00,02,3.20
2020,03,13,00,03,3.20
2020,03,13,00,04,3.20
2020,03,13,00,05,1.60
2020,03,13,00,09,3.20
2020,03,13,00,10,3.20
2020,03,13,00,11,3.20
2020,03,13,00,12,3.20
2020,03,13,00,13,3.20
2020,03,13,00,14,3.20
2020,03,13,00,15,3.20
2020,03,13,00,18,4.80
2020,03,13,00,19,4.80
2020,03,13,00,20,3.20
2020,03,13,00,21,1.60
2020,03,13,00,23,1.60
2020,03,13,00,24,3.20
2020,03,13,00,25,3.20
2020,03,13,00,26,3.20
2020,03,13,00,27,3.20
2020,03,13,00,28,3.20
2020,03,13,00,29,3.20
2020,03,13,00,30,3.20
2020,03,13,00,31,3.20
2020,03,13,00,32,3.20
2020,03,13,00,33,3.20
2020,03,13,00,34,1.60
2020,03,13,00,38,3.20
2020,03,13,00,39,3.20
2020,03,13,00,40,3.20
2020,03,13,00,41,3.20
2020,03,13,00,42,3.20
2020,03,13,00,43,3.20
2020,03,13,00,44,3.20
2020,03,13,00,45,4.80
2020,03,13,00,46,3.20
2020,03,13,00,47,1.60
2020,03,13,00,51,3.20
2020,03,13,00,52,3.20
2020,03,13,00,53,3.20
2020,03,13,00,54,3.20
2020,03,13,00,55,3.20
2020,03,13,00,56,1.60
2020,03,13,01,03,3.20
2020,03,13,01,04,3.20
2020,03,13,01,05,3.20
2020,03,13,01,06,3.20
2020,03,13,01,07,1.60
2020,03,13,01,08,3.20
2020,03,13,01,09,1.60
2020,03,13,01,16,3.20
2020,03,13,01,17,3.20
2020,03,13,01,19,3.20
2020,03,13,01,20,3.20
2020,03,13,01,22,1.60
2020,03,13,01,23,3.20
2020,03,13,01,30,1.60
2020,03,13,01,31,3.20
2020,03,13,01,32,3.20
2020,03,13,01,33,3.20
2020,03,13,01,34,3.20
2020,03,13,01,35,3.20
2020,03,13,01,36,3.20
2020,03,13,01,37,3.20
2020,03,13,01,41,4.80
2020,03,13,01,42,4.80
2020,03,13,01,43,3.20
2020,03,13,01,44,1.60
2020,03,13,01,45,3.20
2020,03,13,01,46,3.20
2020,03,13,01,47,3.20
2020,03,13,01,48,3.20
2020,03,13,01,49,3.20
2020,03,13,01,50,3.20
2020,03,13,01,51,3.20
2020,03,13,01,52,3.20
2020,03,13,01,56,4.80
2020,03,13,01,57,4.80
2020,03,13,01,58,3.20
2020,03,13,01,59,3.20
2020,03,13,02,00,3.20
2020,03,13,02,01,3.20
2020,03,13,02,02,3.20
2020,03,13,02,03,3.20
2020,03,13,02,04,3.20
2020,03,13,02,05,3.20
2020,03,13,02,07,1.60
2020,03,13,02,10,3.20
2020,03,13,02,11,3.20
2020,03,13,02,12,3.20
2020,03,13,02,16,3.20
2020,03,13,02,19,1.60
2020,03,13,02,30,3.20
2020,03,13,02,31,4.80
2020,03,13,02,32,3.20
2020,03,13,02,33,3.20
2020,03,13,02,34,1.60
2020,03,13,02,36,3.20
2020,03,13,02,37,3.20
2020,03,13,02,38,3.20
2020,03,13,02,39,1.60
2020,03,13,02,44,1.60
2020,03,13,02,45,4.80
2020,03,13,02,46,4.80
2020,03,13,02,47,3.20
2020,03,13,02,48,1.60
2020,03,13,02,49,3.20
2020,03,13,02,50,3.20
2020,03,13,02,58,1.60
2020,03,13,02,59,3.20
2020,03,13,03,00,1.60
2020,03,13,03,03,3.20
2020,03,13,03,04,3.20
2020,03,13,03,06,3.20
2020,03,13,03,07,3.20
2020,03,13,03,08,3.20
2020,03,13,03,12,4.80
2020,03,13,03,13,3.20
2020,03,13,03,19,4.80
2020,03,13,03,20,3.20
2020,03,13,03,21,1.60
2020,03,13,03,23,3.20
2020,03,13,03,24,3.20
2020,03,13,03,25,3.20
2020,03,13,03,27,3.20
2020,03,13,03,31,3.20
2020,03,13,03,32,3.20
2020,03,13,03,33,1.60
2020,03,13,03,35,4.80
2020,03,13,03,36,3.20
2020,03,13,03,38,3.20
2020,03,13,03,39,1.60
2020,03,13,03,40,4.80
2020,03,13,03,41,4.80
2020,03,13,03,42,4.80
2020,03,13,03,44,3.20
2020,03,13,03,45,3.20
2020,03,13,03,46,6.40
2020,03,13,03,47,6.40
2020,03,13,03,48,3.20
2020,03,13,03,51,3.20
2020,03,13,03,52,1.60
2020,03,13,03,56,3.20
2020,03,13,03,57,3.20
2020,03,13,03,59,3.20
2020,03,13,04,08,3.20
2020,03,13,04,09,3.20
2020,03,13,04,10,3.20
2020,03,13,04,34,1.60
2020,03,13,04,35,3.20
2020,03,13,04,36,1.60
2020,03,13,04,37,1.60
2020,03,13,05,02,3.20
2020,03,13,05,06,3.20
2020,03,13,05,07,3.20
2020,03,13,05,08,1.60
2020,03,13,05,09,1.60
2020,03,13,05,22,3.20
2020,03,13,05,23,3.20
2020,03,13,05,24,1.60
2020,03,13,05,43,3.20
2020,03,13,05,44,4.80
2020,03,13,05,45,3.20
2020,03,13,05,59,3.20
2020,03,13,06,00,3.20
2020,03,13,06,11,3.20
2020,03,13,06,12,3.20
2020,03,13,06,13,3.20
2020,03,13,06,14,3.20
2020,03,13,06,21,1.60
2020,03,13,06,22,1.60
2020,03,13,06,25,1.60
2020,03,13,06,27,3.20
2020,03,13,06,28,1.60
2020,03,13,06,33,1.60
2020,03,13,06,36,3.20
2020,03,13,06,46,4.80
2020,03,13,06,47,3.20
2020,03,13,06,48,1.60
2020,03,13,06,49,1.60
2020,03,13,07,24,3.20
2020,03,13,07,25,3.20
2020,03,13,07,26,3.20
2020,03,13,07,30,1.60
2020,03,13,07,31,3.20
2020,03,13,07,32,1.60
2020,03,13,07,34,3.20
2020,03,13,07,35,3.20
2020,03,13,07,57,3.20
2020,03,13,07,58,3.20
2020,03,13,07,59,1.60
2020,03,13,08,01,3.20
2020,03,13,08,02,4.80
2020,03,13,08,03,4.80
2020,03,13,08,04,3.20
2020,03,13,08,05,4.80
2020,03,13,08,06,1.60
2020,03,13,08,14,4.80
2020,03,13,08,15,8.10
2020,03,13,08,28,4.80
2020,03,13,08,29,3.20
2020,03,13,08,32,1.60
2020,03,13,08,37,1.60
2020,03,13,08,38,4.80
2020,03,13,08,39,3.20
2020,03,13,08,40,6.40
2020,03,13,08,41,4.80
2020,03,13,08,43,3.20
2020,03,13,08,44,3.20
2020,03,13,08,45,1.60
2020,03,13,08,50,1.60
2020,03,13,08,51,3.20
2020,03,13,08,53,3.20
2020,03,13,08,54,1.60
2020,03,13,08,58,3.20
2020,03,13,08,59,3.20
2020,03,13,09,02,3.20
2020,03,13,09,05,3.20
2020,03,13,09,06,4.80
2020,03,13,09,07,3.20
2020,03,13,09,08,3.20
2020,03,13,09,09,4.80
2020,03,13,09,10,6.40
2020,03,13,09,11,4.80
2020,03,13,09,12,4.80
2020,03,13,09,13,3.20
2020,03,13,09,14,4.80
2020,03,13,09,15,4.80
2020,03,13,09,17,9.60
2020,03,13,09,18,6.40
2020,03,13,09,19,8.10
2020,03,13,09,20,6.40
2020,03,13,09,21,6.40
2020,03,13,09,22,3.20
2020,03,13,09,23,6.40
2020,03,13,09,24,14.50
2020,03,13,09,25,8.10
2020,03,13,09,26,16.10
2020,03,13,09,27,11.30
2020,03,13,09,28,9.60
2020,03,13,09,29,4.80
2020,03,13,09,30,6.40
2020,03,13,09,31,3.20
2020,03,13,09,32,6.40
2020,03,13,09,33,6.40
2020,03,13,09,34,3.20
2020,03,13,09,35,6.40
2020,03,13,09,36,6.40
2020,03,13,09,37,9.60
2020,03,13,09,38,8.10
2020,03,13,09,39,11.30
2020,03,13,09,40,6.40
2020,03,13,09,41,9.60
2020,03,13,09,42,8.10
2020,03,13,09,43,6.40
2020,03,13,09,44,6.40
2020,03,13,09,45,8.10
2020,03,13,09,46,8.10
2020,03,13,09,47,8.10
2020,03,13,09,48,4.80
2020,03,13,09,49,9.60
2020,03,13,09,50,6.40
2020,03,13,09,51,8.10
2020,03,13,09,52,14.50
2020,03,13,09,53,6.40
2020,03,13,09,54,6.40
2020,03,13,09,55,8.10
2020,03,13,09,56,6.40
2020,03,13,09,57,8.10
2020,03,13,09,58,1.60
2020,03,13,09,59,3.20
2020,03,13,10,00,6.40
2020,03,13,10,01,11.30
2020,03,13,10,02,9.60
2020,03,13,10,03,8.10
2020,03,13,10,04,9.60
2020,03,13,10,05,9.60
2020,03,13,10,06,6.40
2020,03,13,10,07,4.80
2020,03,13,10,08,8.10
2020,03,13,10,09,4.80
2020,03,13,10,10,9.60
2020,03,13,10,11,8.10
2020,03,13,10,12,8.10
2020,03,13,10,13,3.20
2020,03,13,10,14,1.60
2020,03,13,10,15,9.60
2020,03,13,10,16,8.10
2020,03,13,10,17,11.30
2020,03,13,10,18,11.30
2020,03,13,10,19,6.40
2020,03,13,10,20,4.80
2020,03,13,10,21,8.10
2020,03,13,10,22,4.80
2020,03,13,10,23,6.40
2020,03,13,10,24,8.10
2020,03,13,10,25,3.20
2020,03,13,10,27,1.60
2020,03,13,10,29,8.10
2020,03,13,10,30,6.40
2020,03,13,10,31,4.80
2020,03,13,10,32,4.80
2020,03,13,10,33,4.80
2020,03,13,10,34,4.80
2020,03,13,10,35,4.80
2020,03,13,10,36,6.40
2020,03,13,10,37,4.80
2020,03,13,10,38,1.60
2020,03,13,10,39,4.80
2020,03,13,10,40,6.40
2020,03,13,10,41,6.40
2020,03,13,10,42,4.80
2020,03,13,10,43,8.10
2020,03,13,10,44,8.10
2020,03,13,10,45,11.30
2020,03,13,10,46,17.70
2020,03,13,10,47,1.60
2020,03,13,10,48,1.60
2020,03,13,10,49,4.80
2020,03,13,10,50,4.80
2020,03,13,10,52,3.20
2020,03,13,10,53,8.10
2020,03,13,10,54,9.60
2020,03,13,10,55,4.80
2020,03,13,10,56,6.40
2020,03,13,10,57,11.30
2020,03,13,10,58,11.30
2020,03,13,10,59,24.20
2020,03,13,11,00,40.20
2020,03,13,11,01,22.50
2020,03,13,11,02,11.30
2020,03,13,11,03,16.10
2020,03,13,11,04,17.70
2020,03,13,11,05,8.10
2020,03,13,11,06,6.40
2020,03,13,11,07,17.70
2020,03,13,11,08,17.70
2020,03,13,11,09,16.10
2020,03,13,11,10,11.30
2020,03,13,11,11,12.90
2020,03,13,11,12,17.70
2020,03,13,11,13,22.50
2020,03,13,11,14,25.70
2020,03,13,11,15,38.60
2020,03,13,11,16,35.40
2020,03,13,11,17,45.10
2020,03,13,11,18,27.40
2020,03,13,11,19,37.00
2020,03,13,11,20,20.90
2020,03,13,11,21,20.90
2020,03,13,11,22,32.20
2020,03,13,11,23,24.20
2020,03,13,11,24,20.90
2020,03,13,11,25,9.60
2020,03,13,11,26,19.30
2020,03,13,11,27,17.70
2020,03,13,11,28,32.20
2020,03,13,11,29,22.50
2020,03,13,11,30,19.30
2020,03,13,11,31,14.50
2020,03,13,11,32,25.70
2020,03,13,11,33,35.40
2020,03,13,11,34,9.60
2020,03,13,11,35,19.30
2020,03,13,11,36,24.20
2020,03,13,11,37,20.90
2020,03,13,11,38,8.10
2020,03,13,11,39,16.10
2020,03,13,11,40,24.20
2020,03,13,11,41,20.90
2020,03,13,11,42,30.60
2020,03,13,11,43,20.90
2020,03,13,11,44,29.00
2020,03,13,11,45,29.00
2020,03,13,11,46,20.90
2020,03,13,11,47,16.10
2020,03,13,11,48,16.10
2020,03,13,11,49,20.90
2020,03,13,11,50,19.30
2020,03,13,11,51,14.50
2020,03,13,11,52,8.10
2020,03,13,11,53,17.70
2020,03,13,11,54,19.30
2020,03,13,11,55,9.60
2020,03,13,11,56,17.70
2020,03,13,11,57,11.30
2020,03,13,11,58,9.60
2020,03,13,11,59,20.90
2020,03,13,12,00,19.30
2020,03,13,12,01,11.30
2020,03,13,12,02,19.30
2020,03,13,12,03,11.30
2020,03,13,12,04,20.90
2020,03,13,12,05,35.40
2020,03,13,12,06,17.70
2020,03,13,12,07,9.60
2020,03,13,12,08,16.10
2020,03,13,12,09,16.10
2020,03,13,12,10,9.60
2020,03,13,12,11,11.30
2020,03,13,12,12,8.10
2020,03,13,12,13,20.90
2020,03,13,12,14,32.20
2020,03,13,12,15,24.20
2020,03,13,12,16,19.30
2020,03,13,12,17,19.30
2020,03,13,12,18,30.60
2020,03,13,12,19,19.30
2020,03,13,12,20,22.50
2020,03,13,12,21,20.90
2020,03,13,12,22,24.20
2020,03,13,12,23,24.20
2020,03,13,12,24,24.20
2020,03,13,12,25,29.00
2020,03,13,12,26,29.00
2020,03,13,12,27,14.50
2020,03,13,12,28,6.40
2020,03,13,12,29,11.30
2020,03,13,12,30,11.30
2020,03,13,12,31,19.30
2020,03,13,12,32,19.30
2020,03,13,12,33,20.90
2020,03,13,12,34,41.80
2020,03,13,12,35,22.50
2020,03,13,12,36,35.40
2020,03,13,12,37,17.70
2020,03,13,12,38,9.60
2020,03,13,12,39,19.30
2020,03,13,12,40,9.60
2020,03,13,12,41,17.70
2020,03,13,12,42,17.70
2020,03,13,12,43,25.70
2020,03,13,12,44,11.30
2020,03,13,12,45,29.00
2020,03,13,12,46,33.80
2020,03,13,12,47,16.10
2020,03,13,12,48,4.80
2020,03,13,12,49,11.30
2020,03,13,12,50,32.20
2020,03,13,12,51,27.40
2020,03,13,12,52,19.30
2020,03,13,12,53,16.10
2020,03,13,12,54,14.50
2020,03,13,12,55,17.70
2020,03,13,12,56,12.90
2020,03,13,12,57,16.10
2020,03,13,12,58,30.60
2020,03,13,12,59,32.20
2020,03,13,13,00,29.00
2020,03,13,13,01,20.90
2020,03,13,13,02,19.30
2020,03,13,13,03,6.40
2020,03,13,13,04,9.60
2020,03,13,13,05,20.90
2020,03,13,13,06,11.30
2020,03,13,13,07,11.30
2020,03,13,13,08,22.50
2020,03,13,13,09,37.00
2020,03,13,13,10,27.40
2020,03,13,13,11,11.30
2020,03,13,13,12,30.60
2020,03,13,13,13,24.20
2020,03,13,13,14,25.70
2020,03,13,13,15,22.50
2020,03,13,13,16,25.70
2020,03,13,13,17,11.30
2020,03,13,13,18,16.10
2020,03,13,13,19,12.90
2020,03,13,13,20,22.50
2020,03,13,13,21,24.20
2020,03,13,13,22,25.70
2020,03,13,13,23,22.50
2020,03,13,13,24,19.30
2020,03,13,13,25,24.20
2020,03,13,13,26,20.90
2020,03,13,13,27,24.20
2020,03,13,13,28,41.80
2020,03,13,13,29,33.80
2020,03,13,13,30,37.00
2020,03,13,13,31,25.70
2020,03,13,13,32,9.60
2020,03,13,13,33,33.80
2020,03,13,13,34,17.70
2020,03,13,13,35,20.90
2020,03,13,13,36,25.70
2020,03,13,13,37,19.30
2020,03,13,13,38,24.20
2020,03,13,13,39,19.30
2020,03,13,13,40,20.90
2020,03,13,13,41,22.50
2020,03,13,13,42,14.50
2020,03,13,13,43,14.50
2020,03,13,13,44,19.30
2020,03,13,13,45,14.50
2020,03,13,13,46,11.30
2020,03,13,13,47,20.90
2020,03,13,13,48,29.00
2020,03,13,13,49,24.20
2020,03,13,13,50,24.20
2020,03,13,13,51,14.50
2020,03,13,13,52,8.10
2020,03,13,13,53,11.30
2020,03,13,13,54,8.10
2020,03,13,13,55,30.60
2020,03,13,13,56,19.30
2020,03,13,13,57,33.80
2020,03,13,13,58,25.70
2020,03,13,13,59,19.30
2020,03,13,14,00,14.50
2020,03,13,14,01,11.30
2020,03,13,14,02,17.70
2020,03,13,14,03,19.30
2020,03,13,14,04,11.30
2020,03,13,14,05,11.30
2020,03,13,14,06,16.10
2020,03,13,14,07,17.70
2020,03,13,14,08,6.40
2020,03,13,14,09,22.50
2020,03,13,14,10,25.70
2020,03,13,14,11,9.60
2020,03,13,14,12,22.50
2020,03,13,14,13,14.50
2020,03,13,14,14,30.60
2020,03,13,14,15,19.30
2020,03,13,14,16,17.70
2020,03,13,14,17,14.50
2020,03,13,14,18,3.20
2020,03,13,14,19,9.60
2020,03,13,14,20,12.90
2020,03,13,14,21,16.10
2020,03,13,14,22,29.00
2020,03,13,14,23,11.30
2020,03,13,14,24,16.10
2020,03,13,14,25,14.50
2020,03,13,14,26,8.10
2020,03,13,14,27,22.50
2020,03,13,14,28,16.10
2020,03,13,14,29,12.90
2020,03,13,14,30,29.00
2020,03,13,14,31,30.60
2020,03,13,14,32,11.30
2020,03,13,14,33,19.30
2020,03,13,14,34,27.40
2020,03,13,14,35,27.40
2020,03,13,14,36,14.50
2020,03,13,14,37,14.50
2020,03,13,14,38,12.90
2020,03,13,14,39,19.30
2020,03,13,14,40,16.10
2020,03,13,14,41,27.40
2020,03,13,14,42,14.50
2020,03,13,14,43,20.90
2020,03,13,14,44,27.40
2020,03,13,14,45,17.70
2020,03,13,14,46,16.10
2020,03,13,14,47,11.30
2020,03,13,14,48,27.40
2020,03,13,14,49,14.50
2020,03,13,14,50,20.90
2020,03,13,14,51,8.10
2020,03,13,14,52,19.30
2020,03,13,14,53,17.70
2020,03,13,14,54,29.00
2020,03,13,14,55,22.50
2020,03,13,14,56,22.50
2020,03,13,14,57,8.10
2020,03,13,14,58,11.30
2020,03,13,14,59,14.50
2020,03,13,15,00,14.50
2020,03,13,15,01,20.90
2020,03,13,15,02,32.20
2020,03,13,15,03,11.30
2020,03,13,15,04,24.20
2020,03,13,15,05,20.90
2020,03,13,15,06,19.30
2020,03,13,15,07,43.50
2020,03,13,15,08,11.30
2020,03,13,15,09,17.70
2020,03,13,15,10,24.20
2020,03,13,15,11,24.20
2020,03,13,15,12,27.40
2020,03,13,15,13,22.50
2020,03,13,15,14,19.30
2020,03,13,15,15,25.70
2020,03,13,15,16,29.00
2020,03,13,15,17,24.20
2020,03,13,15,18,16.10
2020,03,13,15,19,8.10
2020,03,13,15,20,4.80
2020,03,13,15,21,20.90
2020,03,13,15,22,32.20
2020,03,13,15,23,29.00
2020,03,13,15,24,19.30
2020,03,13,15,25,25.70
2020,03,13,15,26,17.70
2020,03,13,15,27,20.90
2020,03,13,15,28,20.90
2020,03,13,15,29,27.40
2020,03,13,15,30,35.40
2020,03,13,15,31,16.10
2020,03,13,15,32,24.20
2020,03,13,15,33,27.40
2020,03,13,15,34,29.00
2020,03,13,15,35,20.90
2020,03,13,15,36,20.90
2020,03,13,15,37,30.60
2020,03,13,15,38,27.40
2020,03,13,15,39,30.60
2020,03,13,15,40,25.70
2020,03,13,15,41,29.00
2020,03,13,15,42,20.90
2020,03,13,15,43,22.50
2020,03,13,15,44,24.20
2020,03,13,15,45,25.70
2020,03,13,15,46,32.20
2020,03,13,15,47,25.70
2020,03,13,15,48,22.50
2020,03,13,15,49,25.70
2020,03,13,15,50,27.40
2020,03,13,15,51,25.70
2020,03,13,15,52,25.70
2020,03,13,15,53,14.50
2020,03,13,15,54,19.30
2020,03,13,15,55,20.90
2020,03,13,15,56,19.30
2020,03,13,15,57,27.40
2020,03,13,15,58,22.50
2020,03,13,15,59,20.90
2020,03,13,16,00,27.40
2020,03,13,16,01,22.50
2020,03,13,16,02,32.20
2020,03,13,16,03,30.60
2020,03,13,16,04,24.20
2020,03,13,16,05,11.30
2020,03,13,16,06,32.20
2020,03,13,16,07,8.10
2020,03,13,16,08,16.10
2020,03,13,16,09,35.40
2020,03,13,16,10,22.50
2020,03,13,16,11,22.50
2020,03,13,16,12,32.20
2020,03,13,16,13,30.60
2020,03,13,16,14,33.80
2020,03,13,16,15,38.60
2020,03,13,16,16,32.20
2020,03,13,16,17,30.60
2020,03,13,16,18,35.40
2020,03,13,16,19,30.60
2020,03,13,16,20,29.00
2020,03,13,16,21,11.30
2020,03,13,16,22,8.10
2020,03,13,16,23,6.40
2020,03,13,16,24,9.60
2020,03,13,16,25,19.30
2020,03,13,16,26,17.70
2020,03,13,16,27,19.30
2020,03,13,16,28,17.70
2020,03,13,16,29,20.90
2020,03,13,16,30,8.10
2020,03,13,16,31,22.50
2020,03,13,16,32,41.80
2020,03,13,16,33,25.70
2020,03,13,16,34,24.20
2020,03,13,16,35,24.20
2020,03,13,16,36,40.20
2020,03,13,16,37,40.20
2020,03,13,16,38,32.20
2020,03,13,16,39,22.50
2020,03,13,16,40,8.10
2020,03,13,16,41,3.20
2020,03,13,16,42,22.50
2020,03,13,16,43,9.60
2020,03,13,16,44,8.10
2020,03,13,16,45,8.10
2020,03,13,16,46,8.10
2020,03,13,16,47,14.50
2020,03,13,16,48,14.50
2020,03,13,16,49,29.00
2020,03,13,16,50,24.20
2020,03,13,16,51,9.60
2020,03,13,16,52,11.30
2020,03,13,16,53,6.40
2020,03,13,16,54,20.90
2020,03,13,16,55,35.40
2020,03,13,16,56,40.20
2020,03,13,16,57,22.50
2020,03,13,16,58,20.90
2020,03,13,16,59,25.70
2020,03,13,17,00,16.10
2020,03,13,17,01,27.40
2020,03,13,17,02,37.00
2020,03,13,17,03,48.30
2020,03,13,17,04,17.70
2020,03,13,17,05,9.60
2020,03,13,17,06,8.10
2020,03,13,17,07,20.90
2020,03,13,17,08,14.50
2020,03,13,17,09,22.50
2020,03,13,17,10,27.40
2020,03,13,17,11,38.60
2020,03,13,17,12,54.70
2020,03,13,17,13,41.80
2020,03,13,17,14,24.20
2020,03,13,17,15,24.20
2020,03,13,17,16,14.50
2020,03,13,17,17,4.80
2020,03,13,17,18,9.60
2020,03,13,17,19,20.90
2020,03,13,17,20,12.90
2020,03,13,17,21,14.50
2020,03,13,17,22,29.00
2020,03,13,17,23,11.30
2020,03,13,17,24,6.40
2020,03,13,17,25,8.10
2020,03,13,17,26,12.90
2020,03,13,17,27,25.70
2020,03,13,17,28,25.70
2020,03,13,17,29,12.90
2020,03,13,17,30,16.10
2020,03,13,17,31,27.40
2020,03,13,17,32,24.20
2020,03,13,17,33,25.70
2020,03,13,17,34,30.60
2020,03,13,17,35,17.70
2020,03,13,17,36,20.90
2020,03,13,17,37,9.60
2020,03,13,17,38,29.00
2020,03,13,17,39,24.20
2020,03,13,17,40,30.60
2020,03,13,17,41,25.70
2020,03,13,17,42,8.10
2020,03,13,17,43,3.20
2020,03,13,17,44,3.20
2020,03,13,17,45,1.60
2020,03,13,17,46,8.10
2020,03,13,17,47,4.80
2020,03,13,17,48,4.80
2020,03,13,17,49,40.20
2020,03,13,17,50,32.20
2020,03,13,17,51,25.70
2020,03,13,17,52,25.70
2020,03,13,17,53,14.50
2020,03,13,17,54,17.70
2020,03,13,17,55,11.30
2020,03,13,17,56,9.60
2020,03,13,17,57,6.40
2020,03,13,17,58,6.40
2020,03,13,17,59,19.30
2020,03,13,18,00,19.30
2020,03,13,18,01,20.90
2020,03,13,18,02,16.10
2020,03,13,18,03,20.90
2020,03,13,18,04,22.50
2020,03,13,18,05,16.10
2020,03,13,18,06,14.50
2020,03,13,18,07,12.90
2020,03,13,18,08,11.30
2020,03,13,18,09,8.10
2020,03,13,18,10,24.20
2020,03,13,18,11,22.50
2020,03,13,18,12,14.50
2020,03,13,18,13,14.50
2020,03,13,18,14,11.30
2020,03,13,18,15,20.90
2020,03,13,18,16,9.60
2020,03,13,18,17,3.20
2020,03,13,18,18,8.10
2020,03,13,18,19,9.60
2020,03,13,18,20,11.30
2020,03,13,18,21,22.50
2020,03,13,18,22,32.20
2020,03,13,18,23,25.70
2020,03,13,18,24,25.70
2020,03,13,18,25,9.60
2020,03,13,18,26,17.70
2020,03,13,18,27,16.10
2020,03,13,18,28,4.80
2020,03,13,18,29,11.30
2020,03,13,18,30,12.90
2020,03,13,18,31,35.40
2020,03,13,18,32,22.50
2020,03,13,18,33,16.10
2020,03,13,18,34,19.30
2020,03,13,18,35,22.50
2020,03,13,18,36,19.30
2020,03,13,18,37,24.20
2020,03,13,18,38,22.50
2020,03,13,18,39,20.90
2020,03,13,18,41,27.40
2020,03,13,18,42,22.50
2020,03,13,18,43,14.50
2020,03,13,18,44,20.90
2020,03,13,18,45,8.10
2020,03,13,18,46,9.60
2020,03,13,18,47,30.60
2020,03,13,18,48,24.20
2020,03,13,18,49,20.90
2020,03,13,18,50,19.30
2020,03,13,18,51,17.70
2020,03,13,18,52,9.60
2020,03,13,18,53,8.10
2020,03,13,18,54,12.90
2020,03,13,18,55,16.10
2020,03,13,18,56,22.50
2020,03,13,18,57,29.00
2020,03,13,18,58,24.20
2020,03,13,18,59,25.70
2020,03,13,19,00,14.50
2020,03,13,19,01,8.10
2020,03,13,19,02,16.10
2020,03,13,19,03,25.70
2020,03,13,19,04,38.60
2020,03,13,19,05,16.10
2020,03,13,19,06,24.20
2020,03,13,19,07,14.50
2020,03,13,19,08,11.30
2020,03,13,19,09,17.70
2020,03,13,19,10,3.20
2020,03,13,19,11,6.40
2020,03,13,19,12,20.90
2020,03,13,19,13,19.30
2020,03,13,19,14,22.50
2020,03,13,19,15,38.60
2020,03,13,19,16,29.00
2020,03,13,19,17,24.20
2020,03,13,19,18,25.70
2020,03,13,19,19,29.00
2020,03,13,19,20,46.70
2020,03,13,19,21,40.20
2020,03,13,19,22,22.50
2020,03,13,19,23,22.50
2020,03,13,19,24,4.80
2020,03,13,19,25,14.50
2020,03,13,19,26,11.30
2020,03,13,19,27,22.50
2020,03,13,19,28,35.40
2020,03,13,19,29,8.10
2020,03,13,19,30,9.60
2020,03,13,19,31,8.10
2020,03,13,19,32,16.10
2020,03,13,19,33,11.30
2020,03,13,19,34,14.50
2020,03,13,19,35,12.90
2020,03,13,19,36,19.30
2020,03,13,19,37,3.20
2020,03,13,19,38,8.10
2020,03,13,19,39,14.50
2020,03,13,19,40,16.10
2020,03,13,19,41,30.60
2020,03,13,19,42,11.30
2020,03,13,19,43,27.40
2020,03,13,19,44,25.70
2020,03,13,19,45,41.80
2020,03,13,19,46,20.90
2020,03,13,19,47,27.40
2020,03,13,19,48,17.70
2020,03,13,19,49,35.40
2020,03,13,19,50,43.50
2020,03,13,19,51,17.70
2020,03,13,19,52,9.60
2020,03,13,19,53,25.70
2020,03,13,19,54,25.70
2020,03,13,19,55,22.50
2020,03,13,19,56,24.20
2020,03,13,19,57,19.30
2020,03,13,19,58,25.70
2020,03,13,19,59,35.40
2020,03,13,20,00,20.90
2020,03,13,20,01,20.90
2020,03,13,20,02,27.40
2020,03,13,20,03,16.10
2020,03,13,20,04,25.70
2020,03,13,20,05,33.80
2020,03,13,20,06,17.70
2020,03,13,20,07,35.40
2020,03,13,20,08,27.40
2020,03,13,20,09,14.50
2020,03,13,20,10,14.50
2020,03,13,20,11,24.20
2020,03,13,20,12,24.20
2020,03,13,20,13,19.30
2020,03,13,20,14,24.20
2020,03,13,20,15,22.50
2020,03,13,20,16,16.10
2020,03,13,20,17,22.50
2020,03,13,20,18,3.20
2020,03,13,20,19,9.60
2020,03,13,20,20,8.10
2020,03,13,20,21,6.40
2020,03,13,20,22,9.60
2020,03,13,20,23,11.30
2020,03,13,20,24,9.60
2020,03,13,20,25,11.30
2020,03,13,20,26,29.00
2020,03,13,20,27,32.20
2020,03,13,20,28,24.20
2020,03,13,20,29,11.30
2020,03,13,20,30,11.30
2020,03,13,20,31,32.20
2020,03,13,20,32,38.60
2020,03,13,20,33,37.00
2020,03,13,20,34,25.70
2020,03,13,20,35,19.30
2020,03,13,20,36,19.30
2020,03,13,20,37,19.30
2020,03,13,20,38,12.90
2020,03,13,20,39,9.60
2020,03,13,20,40,35.40
2020,03,13,20,41,16.10
2020,03,13,20,42,38.60
2020,03,13,20,43,32.20
2020,03,13,20,44,45.10
2020,03,13,20,45,48.30
2020,03,13,20,46,33.80
2020,03,13,20,47,27.40
2020,03,13,20,48,41.80
2020,03,13,20,49,25.70
2020,03,13,20,50,33.80
2020,03,13,20,51,17.70
2020,03,13,20,52,40.20
2020,03,13,20,53,29.00
2020,03,13,20,54,17.70
2020,03,13,20,55,24.20
2020,03,13,20,56,11.30
2020,03,13,20,57,25.70
2020,03,13,20,58,22.50
2020,03,13,20,59,9.60
2020,03,13,21,00,30.60
2020,03,13,21,01,22.50
2020,03,13,21,02,20.90
2020,03,13,21,03,20.90
2020,03,13,21,04,17.70
2020,03,13,21,05,9.60
2020,03,13,21,06,24.20
2020,03,13,21,07,32.20
2020,03,13,21,08,40.20
2020,03,13,21,09,20.90
2020,03,13,21,10,20.90
2020,03,13,21,11,27.40
2020,03,13,21,12,43.50
2020,03,13,21,13,29.00
2020,03,13,21,14,16.10
2020,03,13,21,15,41.80
2020,03,13,21,16,40.20
2020,03,13,21,17,29.00
2020,03,13,21,18,35.40
2020,03,13,21,19,16.10
2020,03,13,21,20,25.70
2020,03,13,21,21,25.70
2020,03,13,21,22,19.30
2020,03,13,21,23,49.90
2020,03,13,21,24,11.30
2020,03,13,21,25,22.50
2020,03,13,21,26,17.70
2020,03,13,21,27,46.70
2020,03,13,21,28,35.40
2020,03,13,21,29,37.00
2020,03,13,21,30,27.40
2020,03,13,21,31,25.70
2020,03,13,21,32,16.10
2020,03,13,21,33,20.90
2020,03,13,21,34,17.70
2020,03,13,21,35,33.80
2020,03,13,21,36,29.00
2020,03,13,21,37,25.70
2020,03,13,21,38,25.70
2020,03,13,21,39,38.60
2020,03,13,21,40,16.10
2020,03,13,21,41,25.70
2020,03,13,21,42,19.30
2020,03,13,21,43,11.30
2020,03,13,21,44,19.30
2020,03,13,21,45,20.90
2020,03,13,21,46,20.90
2020,03,13,21,47,14.50
2020,03,13,21,48,17.70
2020,03,13,21,49,40.20
2020,03,13,21,50,35.40
2020,03,13,21,51,8.10
2020,03,13,21,52,19.30
2020,03,13,21,53,33.80
2020,03,13,21,54,41.80
2020,03,13,21,55,41.80
2020,03,13,21,56,30.60
2020,03,13,21,57,27.40
2020,03,13,21,58,9.60
2020,03,13,21,59,16.10
2020,03,13,22,00,32.20
2020,03,13,22,01,17.70
2020,03,13,22,02,37.00
2020,03,13,22,03,37.00
2020,03,13,22,04,22.50
2020,03,13,22,05,25.70
2020,03,13,22,06,16.10
2020,03,13,22,07,29.00
2020,03,13,22,08,25.70
2020,03,13,22,09,16.10
2020,03,13,22,10,25.70
2020,03,13,22,11,41.80
2020,03,13,22,12,25.70
2020,03,13,22,13,25.70
2020,03,13,22,14,20.90
2020,03,13,22,15,17.70
2020,03,13,22,16,25.70
2020,03,13,22,17,35.40
2020,03,13,22,18,22.50
2020,03,13,22,19,19.30
2020,03,13,22,20,25.70
2020,03,13,22,21,35.40
2020,03,13,22,22,25.70
2020,03,13,22,23,14.50
2020,03,13,22,24,8.10
2020,03,13,22,25,25.70
2020,03,13,22,26,20.90
2020,03,13,22,27,11.30
2020,03,13,22,28,19.30
2020,03,13,22,29,19.30
2020,03,13,22,30,8.10
2020,03,13,22,31,17.70
2020,03,13,22,32,22.50
2020,03,13,22,33,25.70
2020,03,13,22,34,25.70
2020,03,13,22,35,16.10
2020,03,13,22,36,32.20
2020,03,13,22,37,43.50
2020,03,13,22,38,33.80
2020,03,13,22,39,8.10
2020,03,13,22,40,24.20
2020,03,13,22,41,24.20
2020,03,13,22,42,27.40
2020,03,13,22,43,30.60
2020,03,13,22,44,22.50
2020,03,13,22,45,16.10
2020,03,13,22,46,11.30
2020,03,13,22,47,24.20
2020,03,13,22,48,35.40
2020,03,13,22,49,29.00
2020,03,13,22,50,45.10
2020,03,13,22,51,17.70
2020,03,13,22,52,22.50
2020,03,13,22,53,19.30
2020,03,13,22,54,30.60
2020,03,13,22,55,17.70
2020,03,13,22,56,29.00
2020,03,13,22,57,27.40
2020,03,13,22,58,30.60
2020,03,13,22,59,25.70
2020,03,13,23,00,27.40
2020,03,13,23,01,17.70
2020,03,13,23,02,25.70
2020,03,13,23,03,20.90
2020,03,13,23,04,27.40
2020,03,13,23,05,43.50
2020,03,13,23,06,41.80
2020,03,13,23,07,22.50
2020,03,13,23,08,20.90
2020,03,13,23,09,29.00